Time,TemperatureF,DewpointF,PressureIn,WindDirection,WindDirectionDegrees,WindSpeedMPH,WindSpeedGustMPH,Humidity,HourlyPrecipIn,Conditions,Clouds,dailyrainin,SoftwareType,DateUTC
2013-05-03 00:03:00,63.0,56.0,30.07,SE,124,0.0,3.0,78,0.00,,,0.00,,2013-05-03 04:03:00,
2013-05-03 00:13:00,63.0,56.0,30.07,SE,124,0.0,3.0,78,0.00,,,0.00,,2013-05-03 04:13:00,
2013-05-03 00:23:00,63.0,56.0,30.07,SE,124,5.0,6.0,79,0.00,,,0.00,,2013-05-03 04:23:00,
2013-05-03 00:32:00,63.0,56.0,30.07,SE,124,5.0,7.0,79,0.00,,,0.00,,2013-05-03 04:32:00,
2013-05-03 00:43:00,63.0,56.0,30.07,SE,124,5.0,7.0,79,0.00,,,0.00,,2013-05-03 04:43:00,
2013-05-03 00:53:00,63.0,56.0,30.06,ESE,123,2.0,6.0,79,0.00,,,0.00,,2013-05-03 04:53:00,
2013-05-03 01:02:00,63.0,56.0,30.06,ESE,123,0.0,6.0,79,0.00,,,0.00,,2013-05-03 05:02:00,
2013-05-03 01:12:00,63.0,56.0,30.06,ESE,123,0.0,6.0,79,0.00,,,0.00,,2013-05-03 05:12:00,
2013-05-03 01:21:00,63.0,56.0,30.05,ESE,122,1.0,6.0,79,0.00,,,0.00,,2013-05-03 05:21:00,
2013-05-03 01:32:00,62.0,55.0,30.05,ESE,122,0.0,7.0,79,0.00,,,0.00,,2013-05-03 05:32:00,
2013-05-03 01:42:00,62.0,55.0,30.05,ESE,122,0.0,7.0,79,0.00,,,0.00,,2013-05-03 05:42:00,
2013-05-03 01:52:00,62.0,56.0,30.05,ESE,123,4.0,7.0,80,0.00,,,0.00,,2013-05-03 05:52:00,
2013-05-03 02:02:00,62.0,56.0,30.05,ESE,123,4.0,7.0,80,0.00,,,0.00,,2013-05-03 06:02:00,
2013-05-03 02:12:00,62.0,56.0,30.05,ESE,123,4.0,7.0,80,0.00,,,0.00,,2013-05-03 06:12:00,
2013-05-03 02:21:00,62.0,56.0,30.04,SE,130,6.0,10.0,80,0.00,,,0.00,,2013-05-03 06:21:00,
2013-05-03 02:32:00,62.0,56.0,30.04,SE,131,7.0,12.0,80,0.00,,,0.00,,2013-05-03 06:32:00,
2013-05-03 02:42:00,62.0,56.0,30.04,SE,131,7.0,12.0,80,0.00,,,0.00,,2013-05-03 06:42:00,
2013-05-03 02:52:00,62.0,56.0,30.03,SE,130,9.0,12.0,80,0.00,,,0.00,,2013-05-03 06:52:00,
2013-05-03 03:01:00,61.0,55.0,30.03,SE,128,7.0,10.0,81,0.00,,,0.00,,2013-05-03 07:01:00,
2013-05-03 03:11:00,61.0,55.0,30.03,SE,128,7.0,10.0,81,0.00,,,0.00,,2013-05-03 07:11:00,
2013-05-03 03:21:00,61.0,55.0,30.03,SE,128,7.0,11.0,82,0.00,,,0.00,,2013-05-03 07:21:00,
2013-05-03 03:32:00,61.0,55.0,30.02,SE,128,7.0,12.0,82,0.00,,,0.00,,2013-05-03 07:32:00,
2013-05-03 03:42:00,61.0,55.0,30.02,SE,128,7.0,12.0,82,0.00,,,0.00,,2013-05-03 07:42:00,
2013-05-03 03:52:00,61.0,55.0,30.02,SE,140,9.0,13.0,82,0.00,,,0.00,,2013-05-03 07:52:00,
2013-05-03 04:02:00,61.0,55.0,30.02,SE,132,8.0,11.0,82,0.00,,,0.00,,2013-05-03 08:02:00,
2013-05-03 04:12:00,61.0,55.0,30.02,SE,132,8.0,11.0,82,0.00,,,0.00,,2013-05-03 08:12:00,
2013-05-03 04:21:00,61.0,55.0,30.02,SE,138,8.0,14.0,82,0.00,,,0.00,,2013-05-03 08:21:00,
2013-05-03 04:32:00,61.0,55.0,30.02,SE,141,6.0,11.0,82,0.00,,,0.00,,2013-05-03 08:32:00,
2013-05-03 04:42:00,61.0,55.0,30.02,SE,141,6.0,11.0,82,0.00,,,0.00,,2013-05-03 08:42:00,
2013-05-03 04:53:00,61.0,55.0,30.02,SE,141,5.0,7.0,82,0.00,,,0.00,,2013-05-03 08:53:00,
2013-05-03 05:01:00,61.0,56.0,30.02,SE,141,4.0,5.0,83,0.00,,,0.00,,2013-05-03 09:01:00,
2013-05-03 05:12:00,61.0,56.0,30.02,SE,141,4.0,5.0,83,0.00,,,0.00,,2013-05-03 09:12:00,
2013-05-03 05:21:00,60.0,55.0,30.02,SE,141,4.0,5.0,83,0.00,,,0.00,,2013-05-03 09:21:00,
2013-05-03 05:32:00,60.0,55.0,30.02,SE,140,3.0,6.0,84,0.00,,,0.00,,2013-05-03 09:32:00,
2013-05-03 05:42:00,60.0,55.0,30.02,SE,140,3.0,6.0,84,0.00,,,0.00,,2013-05-03 09:42:00,
2013-05-03 05:53:00,60.0,55.0,30.02,SE,128,5.0,8.0,85,0.00,,,0.00,,2013-05-03 09:53:00,
2013-05-03 06:03:00,59.0,54.0,30.02,SE,125,6.0,7.0,85,0.00,,,0.00,,2013-05-03 10:03:00,
2013-05-03 06:12:00,59.0,54.0,30.02,SE,125,6.0,7.0,85,0.00,,,0.00,,2013-05-03 10:12:00,
2013-05-03 06:22:00,59.0,54.0,30.02,SE,125,5.0,7.0,85,0.00,,,0.00,,2013-05-03 10:22:00,
2013-05-03 06:32:00,59.0,55.0,30.02,SE,131,6.0,10.0,86,0.00,,,0.00,,2013-05-03 10:32:00,
2013-05-03 06:42:00,59.0,55.0,30.02,SE,131,6.0,10.0,86,0.00,,,0.00,,2013-05-03 10:42:00,
2013-05-03 06:52:00,59.0,54.0,30.02,SE,126,6.0,11.0,85,0.00,,,0.00,,2013-05-03 10:52:00,
2013-05-03 07:02:00,59.0,54.0,30.03,SE,127,7.0,10.0,85,0.00,,,0.00,,2013-05-03 11:02:00,
2013-05-03 07:11:00,59.0,54.0,30.03,SE,127,7.0,10.0,85,0.00,,,0.00,,2013-05-03 11:11:00,
2013-05-03 07:22:00,59.0,54.0,30.03,SE,136,9.0,12.0,85,0.00,,,0.00,,2013-05-03 11:22:00,
2013-05-03 07:32:00,60.0,55.0,30.03,SE,132,7.0,12.0,85,0.00,,,0.00,,2013-05-03 11:32:00,
2013-05-03 07:42:00,60.0,55.0,30.03,SE,132,7.0,12.0,85,0.00,,,0.00,,2013-05-03 11:42:00,
2013-05-03 07:52:00,60.0,55.0,30.03,SE,132,10.0,12.0,84,0.00,,,0.00,,2013-05-03 11:52:00,
2013-05-03 08:02:00,60.0,55.0,30.03,ESE,123,8.0,11.0,85,0.00,,,0.00,,2013-05-03 12:02:00,
2013-05-03 08:12:00,60.0,55.0,30.03,ESE,123,8.0,11.0,85,0.00,,,0.00,,2013-05-03 12:12:00,
2013-05-03 08:21:00,61.0,56.0,30.03,SE,124,9.0,14.0,84,0.00,,,0.00,,2013-05-03 12:21:00,
2013-05-03 08:32:00,62.0,57.0,30.03,SE,144,8.0,14.0,84,0.00,,,0.00,,2013-05-03 12:32:00,
2013-05-03 08:42:00,62.0,57.0,30.03,SE,144,8.0,14.0,84,0.00,,,0.00,,2013-05-03 12:42:00,
2013-05-03 08:52:00,62.0,57.0,30.03,SE,144,8.0,14.0,84,0.00,,,0.00,,2013-05-03 12:52:00,
2013-05-03 09:01:00,62.0,57.0,30.03,SSE,150,7.0,12.0,83,0.00,,,0.00,,2013-05-03 13:01:00,
2013-05-03 09:11:00,62.0,57.0,30.03,SSE,150,7.0,12.0,83,0.00,,,0.00,,2013-05-03 13:11:00,
2013-05-03 09:22:00,63.0,58.0,30.03,SSE,152,10.0,13.0,83,0.00,,,0.00,,2013-05-03 13:22:00,
2013-05-03 09:32:00,65.0,59.0,30.03,SE,141,12.0,16.0,80,0.00,,,0.00,,2013-05-03 13:32:00,
2013-05-03 09:42:00,65.0,59.0,30.03,SE,141,12.0,16.0,80,0.00,,,0.00,,2013-05-03 13:42:00,
2013-05-03 09:52:00,66.0,59.0,30.03,SE,144,13.0,18.0,77,0.00,,,0.00,,2013-05-03 13:52:00,
2013-05-03 10:02:00,67.0,59.0,30.03,SSE,148,14.0,18.0,75,0.00,,,0.00,,2013-05-03 14:02:00,
2013-05-03 10:11:00,67.0,59.0,30.03,SSE,148,14.0,18.0,75,0.00,,,0.00,,2013-05-03 14:11:00,
2013-05-03 10:22:00,68.0,60.0,30.02,SSE,148,11.0,19.0,75,0.00,,,0.00,,2013-05-03 14:22:00,
2013-05-03 10:32:00,68.0,59.0,30.02,SSE,150,12.0,16.0,73,0.00,,,0.00,,2013-05-03 14:32:00,
2013-05-03 10:42:00,68.0,59.0,30.02,SSE,150,12.0,16.0,73,0.00,,,0.00,,2013-05-03 14:42:00,
2013-05-03 10:52:00,69.0,60.0,30.02,SSE,153,13.0,20.0,73,0.00,,,0.00,,2013-05-03 14:52:00,
2013-05-03 11:01:00,70.0,60.0,30.02,SSE,161,12.0,20.0,70,0.00,,,0.00,,2013-05-03 15:01:00,
2013-05-03 11:11:00,70.0,60.0,30.02,SSE,161,12.0,20.0,70,0.00,,,0.00,,2013-05-03 15:11:00,
2013-05-03 11:22:00,71.0,62.0,30.02,SSE,149,12.0,18.0,73,0.00,,,0.00,,2013-05-03 15:22:00,
2013-05-03 11:32:00,72.0,61.0,30.02,SE,133,10.0,17.0,69,0.00,,,0.00,,2013-05-03 15:32:00,
2013-05-03 11:43:00,72.0,61.0,30.02,SE,133,10.0,17.0,69,0.00,,,0.00,,2013-05-03 15:43:00,
2013-05-03 11:53:00,72.0,61.0,30.02,SSE,151,11.0,18.0,69,0.00,,,0.00,,2013-05-03 15:53:00,
2013-05-03 12:03:00,73.0,62.0,30.01,SE,145,15.0,20.0,69,0.00,,,0.00,,2013-05-03 16:03:00,
2013-05-03 12:13:00,73.0,62.0,30.01,SE,145,15.0,20.0,69,0.00,,,0.00,,2013-05-03 16:13:00,
2013-05-03 12:23:00,74.0,61.0,30.01,SE,145,16.0,18.0,65,0.00,,,0.00,,2013-05-03 16:23:00,
2013-05-03 12:33:00,73.0,61.0,30.01,SSE,148,12.0,20.0,65,0.00,,,0.00,,2013-05-03 16:33:00,
2013-05-03 12:42:00,73.0,61.0,30.01,SSE,148,12.0,20.0,65,0.00,,,0.00,,2013-05-03 16:42:00,
2013-05-03 12:52:00,74.0,62.0,30.01,SSE,168,14.0,20.0,67,0.00,,,0.00,,2013-05-03 16:52:00,
2013-05-03 13:02:00,74.0,61.0,29.99,SE,130,10.0,20.0,65,0.00,,,0.00,,2013-05-03 17:02:00,
2013-05-03 13:12:00,74.0,61.0,29.99,SE,130,10.0,20.0,65,0.00,,,0.00,,2013-05-03 17:12:00,
2013-05-03 13:23:00,75.0,62.0,29.99,ESE,119,10.0,15.0,64,0.00,,,0.00,,2013-05-03 17:23:00,
2013-05-03 13:32:00,75.0,61.0,29.98,South,169,15.0,20.0,62,0.00,,,0.00,,2013-05-03 17:32:00,
2013-05-03 13:42:00,75.0,61.0,29.98,South,169,15.0,20.0,62,0.00,,,0.00,,2013-05-03 17:42:00,
2013-05-03 13:52:00,74.0,59.0,29.99,SSE,150,18.0,23.0,60,0.00,,,0.00,,2013-05-03 17:52:00,
2013-05-03 14:01:00,75.0,61.0,29.99,SSE,150,13.0,20.0,61,0.00,,,0.00,,2013-05-03 18:01:00,
2013-05-03 14:12:00,75.0,61.0,29.99,SSE,150,13.0,20.0,61,0.00,,,0.00,,2013-05-03 18:12:00,
2013-05-03 14:21:00,75.0,61.0,29.98,SSE,159,15.0,24.0,61,0.00,,,0.00,,2013-05-03 18:21:00,
2013-05-03 14:32:00,75.0,60.0,29.98,SE,130,13.0,26.0,60,0.00,,,0.00,,2013-05-03 18:32:00,
2013-05-03 14:42:00,75.0,60.0,29.98,SE,130,13.0,26.0,60,0.00,,,0.00,,2013-05-03 18:42:00,
2013-05-03 14:52:00,75.0,60.0,29.98,SE,144,16.0,23.0,59,0.00,,,0.00,,2013-05-03 18:52:00,
2013-05-03 15:01:00,75.0,60.0,29.97,SE,141,13.0,21.0,60,0.00,,,0.00,,2013-05-03 19:01:00,
2013-05-03 15:11:00,75.0,60.0,29.97,SE,141,13.0,21.0,60,0.00,,,0.00,,2013-05-03 19:11:00,
2013-05-03 15:21:00,74.0,58.0,29.97,SSE,164,13.0,22.0,58,0.00,,,0.00,,2013-05-03 19:21:00,
2013-05-03 15:32:00,75.0,59.0,29.96,SSE,148,16.0,23.0,57,0.00,,,0.00,,2013-05-03 19:32:00,
2013-05-03 15:42:00,75.0,59.0,29.96,SSE,148,16.0,23.0,57,0.00,,,0.00,,2013-05-03 19:42:00,
2013-05-03 15:52:00,75.0,58.0,29.96,SSE,154,14.0,24.0,56,0.00,,,0.00,,2013-05-03 19:52:00,
2013-05-03 16:02:00,75.0,59.0,29.95,ESE,123,14.0,18.0,58,0.00,,,0.00,,2013-05-03 20:02:00,
2013-05-03 16:12:00,75.0,59.0,29.95,ESE,123,14.0,18.0,58,0.00,,,0.00,,2013-05-03 20:12:00,
2013-05-03 16:21:00,75.0,59.0,29.95,SE,124,15.0,22.0,57,0.00,,,0.00,,2013-05-03 20:21:00,
2013-05-03 16:32:00,74.0,58.0,29.95,East,101,12.0,23.0,57,0.00,,,0.00,,2013-05-03 20:32:00,
2013-05-03 16:42:00,74.0,58.0,29.95,East,101,12.0,23.0,57,0.00,,,0.00,,2013-05-03 20:42:00,
2013-05-03 16:52:00,74.0,58.0,29.94,SE,143,17.0,20.0,57,0.00,,,0.00,,2013-05-03 20:52:00,
2013-05-03 17:01:00,75.0,59.0,29.93,SE,136,17.0,22.0,57,0.00,,,0.00,,2013-05-03 21:01:00,
2013-05-03 17:11:00,75.0,59.0,29.93,SE,136,17.0,22.0,57,0.00,,,0.00,,2013-05-03 21:11:00,
2013-05-03 17:21:00,75.0,58.0,29.93,SE,145,16.0,24.0,56,0.00,,,0.00,,2013-05-03 21:21:00,
2013-05-03 17:33:00,75.0,58.0,29.93,SE,134,12.0,22.0,56,0.00,,,0.00,,2013-05-03 21:33:00,
2013-05-03 17:42:00,75.0,58.0,29.93,SE,134,12.0,22.0,56,0.00,,,0.00,,2013-05-03 21:42:00,
2013-05-03 17:53:00,74.0,58.0,29.93,SE,129,14.0,23.0,58,0.00,,,0.00,,2013-05-03 21:53:00,
2013-05-03 18:03:00,75.0,59.0,29.93,SE,128,17.0,22.0,57,0.00,,,0.00,,2013-05-03 22:03:00,
2013-05-03 18:13:00,75.0,59.0,29.93,SE,128,17.0,22.0,57,0.00,,,0.00,,2013-05-03 22:13:00,
2013-05-03 18:22:00,74.0,56.0,29.93,SE,140,15.0,25.0,54,0.00,,,0.00,,2013-05-03 22:22:00,
2013-05-03 18:32:00,74.0,57.0,29.93,SE,131,19.0,23.0,55,0.00,,,0.00,,2013-05-03 22:32:00,
2013-05-03 18:42:00,74.0,57.0,29.93,SE,131,19.0,23.0,55,0.00,,,0.00,,2013-05-03 22:42:00,
2013-05-03 18:52:00,74.0,57.0,29.93,SE,130,16.0,23.0,55,0.00,,,0.00,,2013-05-03 22:52:00,
2013-05-03 19:02:00,74.0,58.0,29.93,SE,142,12.0,22.0,57,0.00,,,0.00,,2013-05-03 23:02:00,
2013-05-03 19:11:00,74.0,58.0,29.93,SE,142,12.0,22.0,57,0.00,,,0.00,,2013-05-03 23:11:00,
2013-05-03 19:22:00,74.0,58.0,29.93,SE,132,14.0,19.0,57,0.00,,,0.00,,2013-05-03 23:22:00,
2013-05-03 19:31:00,73.0,57.0,29.93,ESE,122,15.0,20.0,57,0.00,,,0.00,,2013-05-03 23:31:00,
2013-05-03 19:41:00,73.0,57.0,29.93,ESE,122,15.0,20.0,57,0.00,,,0.00,,2013-05-03 23:41:00,
2013-05-03 19:52:00,73.0,57.0,29.93,SE,132,13.0,19.0,58,0.00,,,0.00,,2013-05-03 23:52:00,
2013-05-03 20:01:00,72.0,56.0,29.93,SE,127,15.0,22.0,57,0.00,,,0.00,,2013-05-04 00:01:00,
2013-05-03 20:11:00,72.0,56.0,29.93,SE,127,15.0,22.0,57,0.00,,,0.00,,2013-05-04 00:11:00,
2013-05-03 20:23:00,72.0,56.0,29.93,SE,134,13.0,25.0,58,0.00,,,0.00,,2013-05-04 00:23:00,
2013-05-03 20:32:00,72.0,56.0,29.94,ESE,114,9.0,18.0,58,0.00,,,0.00,,2013-05-04 00:32:00,
2013-05-03 20:42:00,72.0,56.0,29.94,ESE,114,9.0,18.0,58,0.00,,,0.00,,2013-05-04 00:42:00,
2013-05-03 20:52:00,71.0,56.0,29.93,ESE,122,10.0,16.0,59,0.00,,,0.00,,2013-05-04 00:52:00,
2013-05-03 21:01:00,70.0,55.0,29.94,ESE,117,11.0,15.0,59,0.00,,,0.00,,2013-05-04 01:01:00,
2013-05-03 21:11:00,70.0,55.0,29.94,ESE,117,11.0,15.0,59,0.00,,,0.00,,2013-05-04 01:11:00,
2013-05-03 21:21:00,70.0,55.0,29.94,ESE,121,9.0,15.0,60,0.00,,,0.00,,2013-05-04 01:21:00,
2013-05-03 21:32:00,70.0,55.0,29.94,ESE,121,9.0,15.0,60,0.00,,,0.00,,2013-05-04 01:32:00,
2013-05-03 21:42:00,70.0,55.0,29.94,ESE,121,9.0,15.0,60,0.00,,,0.00,,2013-05-04 01:42:00,
2013-05-03 21:52:00,69.0,55.0,29.95,ESE,122,9.0,16.0,62,0.00,,,0.00,,2013-05-04 01:52:00,
2013-05-03 22:02:00,68.0,54.0,29.95,ESE,122,12.0,16.0,62,0.00,,,0.00,,2013-05-04 02:02:00,
2013-05-03 22:11:00,68.0,54.0,29.95,ESE,122,12.0,16.0,62,0.00,,,0.00,,2013-05-04 02:11:00,
2013-05-03 22:21:00,68.0,54.0,29.96,ESE,123,12.0,19.0,62,0.00,,,0.00,,2013-05-04 02:21:00,
2013-05-03 22:32:00,68.0,54.0,29.96,ESE,115,12.0,17.0,60,0.00,,,0.00,,2013-05-04 02:32:00,
2013-05-03 22:42:00,68.0,54.0,29.96,ESE,115,12.0,17.0,60,0.00,,,0.00,,2013-05-04 02:42:00,
2013-05-03 22:52:00,67.0,52.0,29.96,SE,132,14.0,17.0,58,0.00,,,0.00,,2013-05-04 02:52:00,
2013-05-03 23:02:00,67.0,51.0,29.97,SE,132,10.0,15.0,56,0.00,,,0.00,,2013-05-04 03:02:00,
2013-05-03 23:11:00,67.0,51.0,29.97,SE,132,10.0,15.0,56,0.00,,,0.00,,2013-05-04 03:11:00,
2013-05-03 23:22:00,66.0,50.0,29.97,ESE,118,8.0,14.0,56,0.00,,,0.00,,2013-05-04 03:22:00,
2013-05-03 23:33:00,66.0,50.0,29.97,ESE,120,8.0,15.0,56,0.00,,,0.00,,2013-05-04 03:33:00,
2013-05-03 23:43:00,66.0,50.0,29.97,ESE,120,8.0,15.0,56,0.00,,,0.00,,2013-05-04 03:43:00,
2013-05-03 23:53:00,65.0,49.0,29.96,SE,130,6.0,13.0,57,0.00,,,0.00,,2013-05-04 03:53:00,